Track COSMOS 2459 (GLONASS) now! COSMOS 2459 (GLONASS) is classified as:
1 36400U 10007A 24325.12720821 -.00000054 00000-0 00000-0 0 9990 2 36400 65.7455 333.9264 0026100 340.6993 16.5634 2.13116717114583